TimeCST,TemperatureF,Dew PointF,Humidity,Sea Level PressureIn,VisibilityMPH,Wind Direction,Wind SpeedMPH,Gust SpeedMPH,PrecipitationIn,Events,Conditions,WindDirDegrees,DateUTC
12:53 AM,46.9,46.0,97,30.14,10.0,NW,4.6,-,0.00,Rain,Light Rain,320,2013-02-12 06:53:00
1:53 AM,46.9,44.1,90,30.09,10.0,North,6.9,-,0.01,,Mostly Cloudy,10,2013-02-12 07:53:00
2:53 AM,45.0,43.0,93,30.05,10.0,ENE,5.8,-,N/A,,Clear,60,2013-02-12 08:53:00
3:53 AM,44.1,41.0,89,30.03,10.0,East,4.6,-,N/A,,Partly Cloudy,80,2013-02-12 09:53:00
4:53 AM,45.0,41.0,86,30.03,10.0,NNE,5.8,-,N/A,,Clear,30,2013-02-12 10:53:00
5:53 AM,45.0,42.1,90,30.00,10.0,NE,8.1,-,N/A,,Partly Cloudy,50,2013-02-12 11:53:00
6:53 AM,45.0,41.0,86,30.00,10.0,NNE,5.8,-,N/A,,Mostly Cloudy,20,2013-02-12 12:53:00
7:53 AM,46.0,41.0,83,29.98,10.0,NE,8.1,-,0.01,Rain,Light Rain,40,2013-02-12 13:53:00
8:04 AM,46.4,41.0,81,30.01,8.0,Calm,Calm,-,0.02,Rain-Thunderstorm,Rain,0,2013-02-12 14:04:00
8:19 AM,44.6,42.8,93,30.03,8.0,WNW,4.6,-,0.03,Rain,Rain,300,2013-02-12 14:19:00
8:28 AM,44.6,42.8,93,30.00,6.0,NNE,6.9,-,0.05,Rain-Thunderstorm,Rain,30,2013-02-12 14:28:00
8:43 AM,44.6,41.0,87,30.03,6.0,Variable,3.5,-,0.08,Rain,Light Rain,0,2013-02-12 14:43:00
8:50 AM,44.6,42.8,93,30.08,8.0,SSW,8.1,-,0.08,Rain-Thunderstorm,Light Thunderstorms and Rain,200,2013-02-12 14:50:00
8:53 AM,45.0,42.1,90,30.04,6.0,Calm,Calm,-,0.10,Rain-Thunderstorm,Light Thunderstorms and Rain,0,2013-02-12 14:53:00
9:07 AM,44.6,42.8,93,30.01,4.0,ENE,8.1,17.3,0.06,Rain,Light Rain,70,2013-02-12 15:07:00
9:46 AM,44.6,41.0,87,30.03,10.0,Variable,3.5,-,0.07,Rain-Thunderstorm,Light Thunderstorms and Rain,0,2013-02-12 15:46:00
9:53 AM,45.0,42.1,90,29.99,9.0,ENE,9.2,-,0.08,Rain-Thunderstorm,Light Thunderstorms and Rain,60,2013-02-12 15:53:00
10:01 AM,44.6,42.8,93,29.98,5.0,ENE,10.4,-,0.03,Rain,Heavy Rain,70,2013-02-12 16:01:00
10:53 AM,45.0,42.1,90,29.97,10.0,NNE,11.5,-,0.04,Rain,Light Rain,20,2013-02-12 16:53:00
11:53 AM,45.0,42.1,90,29.91,4.0,NE,16.1,-,0.05,Rain,Rain,40,2013-02-12 17:53:00
12:24 PM,44.6,42.8,93,29.91,9.0,NE,12.7,23.0,0.03,Rain,Light Rain,50,2013-02-12 18:24:00
12:53 PM,45.0,41.0,86,29.91,2.0,NE,16.1,24.2,0.07,Rain,Heavy Rain,50,2013-02-12 18:53:00
1:01 PM,44.6,42.8,93,29.93,1.8,Variable,4.6,-,0.03,Rain,Rain,0,2013-02-12 19:01:00
1:09 PM,44.6,42.8,93,29.91,2.5,NE,16.1,19.6,0.04,Rain,Rain,50,2013-02-12 19:09:00
1:13 PM,46.4,42.8,87,29.89,4.0,NE,16.1,-,0.04,Rain,Light Rain,40,2013-02-12 19:13:00
1:42 PM,44.6,42.8,93,29.87,10.0,ENE,13.8,-,0.04,,Overcast,70,2013-02-12 19:42:00
1:53 PM,45.0,42.1,90,29.88,10.0,ENE,10.4,20.7,0.04,,Overcast,70,2013-02-12 19:53:00
2:53 PM,45.0,43.0,93,29.87,6.0,NE,10.4,-,0.01,,Overcast,50,2013-02-12 20:53:00
3:25 PM,44.6,42.8,93,29.86,9.0,ENE,8.1,-,N/A,,Overcast,70,2013-02-12 21:25:00
3:53 PM,45.0,43.0,93,29.85,7.0,ENE,9.2,-,N/A,,Overcast,60,2013-02-12 21:53:00
4:46 PM,44.6,42.8,93,29.85,2.5,NE,8.1,-,N/A,,Overcast,50,2013-02-12 22:46:00
4:53 PM,45.0,43.0,93,29.85,2.0,NE,6.9,-,N/A,,Overcast,40,2013-02-12 22:53:00
5:29 PM,44.6,42.8,93,29.84,3.0,ENE,8.1,-,N/A,,Overcast,70,2013-02-12 23:29:00
5:37 PM,44.6,42.8,93,29.84,3.0,East,5.8,-,N/A,,Overcast,80,2013-02-12 23:37:00
5:48 PM,44.6,42.8,93,29.84,4.0,ENE,4.6,-,N/A,,Overcast,70,2013-02-12 23:48:00
5:53 PM,44.1,43.0,96,29.84,5.0,ENE,5.8,-,N/A,,Overcast,60,2013-02-12 23:53:00
6:24 PM,44.6,42.8,93,29.85,6.0,ENE,6.9,-,N/A,,Overcast,60,2013-02-13 00:24:00
6:33 PM,44.6,42.8,93,29.86,5.0,ENE,4.6,-,N/A,,Overcast,60,2013-02-13 00:33:00
6:53 PM,44.1,43.0,96,29.86,4.0,ENE,3.5,-,0.00,Rain,Light Rain,70,2013-02-13 00:53:00
7:53 PM,44.1,43.0,96,29.86,3.0,Calm,Calm,-,0.01,,Overcast,0,2013-02-13 01:53:00
8:23 PM,44.6,42.8,93,29.88,5.0,North,3.5,-,N/A,,Overcast,10,2013-02-13 02:23:00
8:43 PM,44.6,42.8,93,29.88,8.0,Calm,Calm,-,N/A,,Overcast,0,2013-02-13 02:43:00
8:53 PM,44.1,42.1,93,29.89,6.0,Calm,Calm,-,N/A,,Overcast,0,2013-02-13 02:53:00
9:53 PM,44.1,43.0,96,29.89,7.0,SW,3.5,-,0.00,,Overcast,230,2013-02-13 03:53:00
10:08 PM,44.6,42.8,93,29.89,7.0,Calm,Calm,-,0.01,,Overcast,0,2013-02-13 04:08:00
10:16 PM,44.6,42.8,93,29.89,7.0,Calm,Calm,-,0.01,,Overcast,0,2013-02-13 04:16:00
10:53 PM,44.1,43.0,96,29.89,10.0,Calm,Calm,-,0.01,,Overcast,0,2013-02-13 04:53:00
11:39 PM,44.6,42.8,93,29.88,10.0,WNW,3.5,-,N/A,,Overcast,290,2013-02-13 05:39:00
11:53 PM,44.1,43.0,96,29.88,10.0,West,3.5,-,N/A,,Overcast,280,2013-02-13 05:53:00